This demonstration page uses our WeatherBlox Daily Observations layout. Learn more.

Left ArrowRight Arrow

34.16533, -84.80231

Hourly Observations for October 10, 2015

Temp ( °F °C ) Dew Point ( °F °C ) Humidity (%) Winds ( mph kmh ) Pressure ( in mb ) Visibility ( mi km ) Precip ( " mm )
12:09 am 00:09 Cloudy with Nearby Thunderstorms 65 18.3 64 17.8 97 97 NNE 7 11 30.03 1017 7 11 0.06 1.52
12:30 am 00:30 Cloudy with Nearby Thunderstorms 65 18.3 64 17.8 97 97 Calm 30.06 1018 8 13 0.10 2.54
12:35 am 00:35 Cloudy with Strong Thunderstorms 65 18.3 64 17.8 97 97 NNE 5 7 30.03 1017 3 4 0.25 6.35
12:43 am 00:43 Cloudy with Strong Thunderstorms 64 17.8 64 17.8 100 100 NNE 7 11 30.03 1017 2 2 0.37 9.40
12:49 am 00:49 Cloudy with Heavy Rain 64 18 63 17 94 94 NE 5 7 30.03 1017 3 4 0.46 11.68
12:53 am 00:53 Cloudy with Heavy Rain 64 17.8 64 17.8 100 100 NE 6 9 30.03 1017 2 3 0.50 12.70
1:05 am 01:05 Cloudy with Heavy Rain 64 17.8 63 17.2 96 96 NE 6 9 30.03 1017 3 5 0.11 2.79
1:53 am 01:53 Cloudy with Rain 64 17.8 63 17.2 96 96 NE 3 6 30.01 1016 6 10 0.19 4.83
2:38 am 02:38 Cloudy 64 17.8 64 17.8 100 100 SE 3 6 30.03 1017 9 14 0.02 0.51
2:53 am 02:53 Cloudy with Light Rain 64 17.8 63 17.2 96 96 Calm 29.99 1016 8 13 0.03 0.76
3:31 am 03:31 Cloudy 64 17.8 64 17.8 100 100 Calm 30.03 1017 7 11 0.00 0.03
3:53 am 03:53 Cloudy 64 17.8 64 17.8 100 100 Calm 30.00 1016 7 11 0.00 0.03
4:46 am 04:46 Cloudy with Light Rain 64 17.8 63 17.2 96 96 Calm 30.00 1016 5 8 0.10 2.54
4:53 am 04:53 Cloudy with Light Rain 64 17.8 63 17.2 96 96 Calm 29.97 1015 8 13 0.10 2.54
5:53 am 05:53 Cloudy with Light Rain 63 17.2 63 17.2 100 100 Calm 29.95 1014 7 11 0.05 1.27
6:16 am 06:16 Cloudy with Light Rain 63 17.2 63 17.2 100 100 Calm 30.00 1016 9 14 0.01 0.25
6:53 am 06:53 Cloudy 63 17.2 63 17.2 100 100 Calm 29.97 1015 7 11 0.01 0.25
7:01 am 07:01 Cloudy with Mist and Fog 63 17.2 63 17.2 100 100 Calm 30.00 1016 6 10 0.00 0.00
7:10 am 07:10 Cloudy with Mist and Fog 63 17.2 63 17.2 100 100 Calm 30.00 1016 6 10 0.00 0.00
7:20 am 07:20 Mostly Cloudy with Mist and Fog 63 17.2 63 17.2 100 100 Calm 30.00 1016 6 10 0.00 0.00
7:53 am 07:53 Cloudy 63 17.2 63 17.2 100 100 Calm 29.98 1015 10 16 0.00 0.00
8:17 am 08:17 Cloudy 63 17.2 62 16.7 97 97 NNW 3 6 30.03 1017 10 16 0.00 0.00
8:53 am 08:53 Cloudy 63 17.2 63 17.2 100 100 Calm 30.00 1016 8 13 0.01 0.25
9:13 am 09:13 Cloudy 63 17.2 63 17.2 100 100 Calm 30.03 1017 10 16 0.00 0.03
9:53 am 09:53 Cloudy with Light Rain 63 17.2 62 16.7 97 97 VRB 3 6 30.02 1017 7 11 0.00 0.03
10:18 am 10:18 Cloudy with Light Rain 62 16.7 60 15.6 93 93 NNW 7 11 30.03 1017 8 13 0.01 0.25
10:26 am 10:26 Cloudy with Light Rain 62 16.7 60 15.6 93 93 VRB 3 6 30.03 1017 7 11 0.02 0.51
10:53 am 10:53 Cloudy 62 16.7 61 16.1 96 96 Calm 30.03 1017 10 16 0.03 0.76
11:39 am 11:39 Cloudy 62 16.7 61 16.1 96 96 Calm 30.03 1017 10 16 0.00 0.03
11:53 am 11:53 Cloudy 62 16.7 61 16.1 96 96 Calm 30.02 1017 10 16 0.00 0.03
12:38 pm 12:38 Cloudy 64 17.8 62 16.7 93 93 Calm 30.03 1017 10 16 0.00 0.00
12:53 pm 12:53 Cloudy 64 17.8 62 16.7 93 93 Calm 30.01 1016 10 16 0.00 0.00
1:00 pm 13:00 Cloudy 65 18.3 62 16.7 90 90 NNW 3 6 30.03 1017 10 16 0.00 0.00
1:32 pm 13:32 Cloudy 65 18.3 62 16.7 90 90 VRB 3 6 30.03 1017 10 16 0.00 0.00
1:53 pm 13:53 Cloudy 66 18.9 61 16.1 84 84 VRB 3 6 30.00 1016 10 16 0.00 0.00
2:53 pm 14:53 Cloudy 67 19.4 61 16.1 81 81 NNW 6 9 29.98 1015 10 16 0.00 0.00
3:53 pm 15:53 Cloudy 66 18.9 61 16.1 84 84 VRB 6 9 29.98 1015 10 16 0.00 0.00
4:02 pm 16:02 Cloudy 66 18.9 61 16.1 84 84 Calm 30.00 1016 10 16 0.00 0.00
4:17 pm 16:17 Cloudy 67 19.4 61 16.1 81 81 NNW 6 9 30.00 1016 10 16 0.00 0.00
4:53 pm 16:53 Cloudy 67 19.4 61 16.1 81 81 VRB 7 11 29.97 1015 10 16 0.00 0.00
5:53 pm 17:53 Mostly Cloudy 66 18.9 59 15 78 78 VRB 5 7 29.98 1015 10 16 0.00 0.00
6:25 pm 18:25 Mostly Cloudy 65 18.3 59 15 81 81 NNW 6 9 30.03 1017 10 16 0.00 0.00
6:53 pm 18:53 Cloudy 65 18.3 59 15 81 81 NNW 5 7 29.99 1016 10 16 0.00 0.00
7:53 pm 19:53 Cloudy 64 17.8 58 14.4 81 81 Calm 30.00 1016 10 16 0.00 0.00
8:01 pm 20:01 Cloudy 64 17.8 58 14.4 81 81 Calm 30.03 1017 10 16 0.00 0.00
8:53 pm 20:53 Mostly Cloudy 63 17.2 58 14.4 84 84 VRB 3 6 30.01 1016 10 16 0.00 0.00
9:33 pm 21:33 Mostly Cloudy 62 16.7 58 14.4 86 86 NNW 7 11 30.03 1017 10 16 0.00 0.00
9:53 pm 21:53 Mostly Cloudy 61 16.1 57 13.9 87 87 Calm 30.01 1016 10 16 0.00 0.00
10:33 pm 22:33 Partly Cloudy 60 15.6 56 13.3 86 86 N 5 7 30.03 1017 10 16 0.00 0.00
10:53 pm 22:53 Clear 60 15.6 56 13.3 86 86 NNW 5 7 30.01 1016 10 16 0.00 0.00
11:49 pm 23:49 Mostly Cloudy 59 15 55 13 88 88 N 3 6 30.03 1017 10 16 0.00 0.00
11:53 pm 23:53 Mostly Cloudy 59 15 55 12.8 87 87 VRB 3 6 30.01 1016 10 16 0.00 0.00

Powered by AerisWeather